Location: Reynolds
(42.8904°N, 73.6626°W)
Time: 00:43:03
(UTC+00:00)

Daily predictions for brighter satellites

Satellite Brightness Start Highest point End
(mag) Time Altitude Azimuth Time Altitude Azimuth Time Altitude Azimuth
Cosmos 1975 Rocket 3.0 00:00:11 10° N 00:04:32 88° W 00:08:51 10° S
Cosmos 2084 Rocket 3.7 00:01:27 10° NW 00:05:54 74° SW 00:10:14 11° SSE
Cosmos 1707 2.8 00:04:16 10° N 00:08:01 51° E 00:11:20 13° SSE
Cosmos 1072 Rocket 4.5 00:02:58 10° S 00:09:05 64° E 00:15:20 10° NNE
SJ-6B 3.5 00:08:41 23° ESE 00:10:06 31° ENE 00:13:26 10° N
Resurs 01 Rocket 3.4 00:12:00 15° ENE 00:12:13 15° ENE 00:14:41 10° NNE
Nadezhda 4 Rocket 4.3 00:08:10 10° N 00:13:57 42° ENE 00:18:31 16° SE
Abrixas rocket 3.5 00:12:20 10° WNW 00:14:51 28° N 00:16:23 17° NE
Cosmos 2034 Rocket 4.3 00:09:22 10° SSE 00:15:24 47° E 00:21:27 10° NNE
Sich 1 Rocket 3.7 00:13:33 10° S 00:18:03 83° W 00:22:35 10° N
ISS -3.9 00:15:10 10° SW 00:18:32 78° SE 00:20:13 27° ENE
OPS 6432 4.5 00:17:55 10° NW 00:21:11 90° SW 00:23:23 25° SE
H-2A R/B 2.3 00:16:24 10° S 00:21:17 66° WSW 00:26:19 10° NNW
In-Cosmos 22 4.1 00:16:46 10° N 00:22:00 58° ENE 00:26:19 15° SSE
ARGOS 3.2 00:19:44 10° SSE 00:25:05 82° WSW 00:30:30 10° NNW
CZ-2C R/B 2.7 00:24:55 10° NNE 00:30:25 62° E 00:35:57 10° S
SL-08 RB Rocket 3.6 00:27:10 12° SSE 00:31:28 86° ENE 00:36:03 10° NNW
Cosmos 1048 Rocket 4.4 00:27:58 10° N 00:33:06 46° ENE 00:34:59 33° ESE
MOS 1 4.2 00:31:18 18° SSE 00:35:32 68° ENE 00:41:13 10° N
Milstar 3 Cent rocket 4.1 00:34:36 10° SSW 00:36:52 12° S 00:37:15 12° SSE
Lacrosse 5 rocket 4.1 00:35:07 10° NW 00:37:44 15° NNW 00:40:23 10° NNE
Okean 2 Rocket 3.2 00:33:20 10° S 00:37:50 80° W 00:42:21 10° N
NOSS 2-2 (E) 4.5 00:35:09 10° WSW 00:38:27 39° NW 00:42:09 10° NNE
Cosmos 1844 4.0 00:33:09 10° S 00:38:30 43° ESE 00:43:49 10° NE
Okean 1 Rocket 4.0 00:42:46 31° ENE 00:42:46 31° ENE 00:45:50 10° NNE
Cosmos 2263 Rocket 4.0 00:37:56 10° WSW 00:42:53 33° NW 00:47:54 10° N
ATLAS 2AS CENTAUR R/B 3.9 00:36:27 10° SSE 00:46:15 21° ENE 00:49:25 10° NE
NOSS 2-2 (D) 4.3 00:43:37 10° WSW 00:46:57 41° NW 00:50:37 10° NNE
Cosmos 1634 Rocket 4.4 00:48:16 36° ESE 00:48:52 37° E 00:54:29 10° NNE
Cosmos 1844 Rocket 2.5 00:44:13 10° SSW 00:49:42 66° ESE 00:55:15 10° NNE
Cosmos 1300 Rocket 4.1 00:45:35 10° SSW 00:49:55 60° W 00:54:19 10° N
Resurs 1-3 3.8 00:50:09 50° E 00:50:19 50° ENE 00:54:35 10° N
Cosmos 2285 Rocket 4.0 00:47:45 10° S 00:53:50 53° ESE 00:59:59 10° NNE
Ariane Rocket 3.2 00:50:37 19° S 00:54:18 72° WSW 00:59:24 10° NNW
USA 186 3.0 00:54:52 32° SW 00:55:39 38° W 00:58:40 10° NNW
CENTAUR R/B 3.5 00:48:49 10° NNW 00:56:38 52° NE 01:00:05 35° E
Exosat Rocket 3.5 00:56:11 10° SSW 01:02:02 68° ESE 01:07:00 10° NNE
ATLAS 3B R/B 4.1 00:56:59 10° NNW 01:02:22 24° NNE 01:04:32 21° ENE
Cosmos 1626 4.4 01:00:39 10° NNE 01:01:29 15° NNE 01:01:29 15° NNE
Meteor 1-15 Rocket 4.1 00:59:07 10° S 01:04:43 84° E 01:10:26 10° NNE
Cosmos 2298 Rocket 4.3 00:59:39 10° SSW 01:04:58 69° WNW 01:10:18 10° NNE
USA 238 DEB 3.8 00:58:06 10° NNW 01:05:22 74° NE 01:07:59 44° SE
Cosmos 494 Rocket 4.0 01:00:14 10° NNW 01:05:26 56° ENE 01:05:42 56° E
USA 238 3.8 00:58:12 10° NNW 01:05:28 74° NE 01:08:04 44° SE
SPOT 3 Rocket 3.4 01:05:38 61° ESE 01:06:17 68° ENE 01:11:25 10° N
Cosmos 1536 Rocket 3.9 01:04:12 10° NNW 01:08:36 62° W 01:09:59 40° SSW
MetOp-A 4.4 01:07:54 29° S 01:10:41 67° WSW 01:16:03 10° NNW
OBJECT-B 2.6 01:14:10 29° NNW 01:14:10 29° NNW 01:15:57 10° NNW
Cosmos 1092 Rocket 3.8 01:06:33 10° N 01:12:42 74° E 01:14:15 52° SSE
Cosmos 1833 Rocket 4.3 01:09:01 10° N 01:12:50 20° NE 01:12:50 20° NE
Cosmos 2195 Rocket 4.4 01:09:32 10° N 01:15:48 70° E 01:16:53 58° SE
Meteor 2-13 Rocket 4.3 01:13:26 10° N 01:19:38 87° E 01:21:15 53° SSE
Cosmos 2026 Rocket 3.9 01:13:38 10° N 01:19:59 65° E 01:20:38 61° ESE
CZ-2C R/B 3.8 01:22:00 10° SW 01:22:04 10° SW 01:22:04 10° SW
Cosmos 1674 4.0 01:26:12 10° NNW 01:29:01 39° NW 01:29:01 39° NW
Cosmos 1428 Rocket 4.3 01:25:54 10° N 01:32:11 75° E 01:32:24 74° E
NOSS 3-2 (A) 4.1 01:25:55 10° NW 01:33:35 76° WSW 01:36:11 48° SSE
Meteor 2-5 Rocket 3.6 01:32:18 10° NNW 01:37:57 83° W 01:38:03 83° WSW
BREEZE-M DEB (TANK) 4.1 01:36:54 10° WNW 01:41:00 56° SSW 01:42:23 49° S
Cosmos 1125 Rocket 4.3 01:40:03 10° SW 01:45:11 50° WNW 01:50:22 10° N
Resurs 01 Rocket 2.8 01:49:34 40° NW 01:49:34 40° NW 01:52:37 10° NNW
USA 234 3.5 01:42:18 10° NE 01:48:48 68° NW 01:55:17 10° WSW
Meteor 1-22 Rocket 4.4 01:49:48 72° N 01:49:48 72° N 01:55:12 10° N
Cosmos 2082 Rocket 3.9 01:49:09 10° N 01:52:04 21° NNE 01:52:04 21° NNE
ISS -0.4 01:52:47 10° WNW 01:53:13 12° WNW 01:53:13 12° WNW
COSMOS 2406 4.1 01:56:38 10° NNW 02:00:31 41° N 02:00:31 41° N
Meteor 1-24 Rocket 4.2 01:58:26 10° NNW 02:02:58 56° NW 02:02:58 56° NW
NOSS 3-2 (C) 4.1 02:00:13 10° NW 02:07:52 72° WSW 02:08:32 69° SSW
Lacrosse 5 rocket 4.3 02:16:04 10° NNW 02:17:41 14° N 02:17:41 14° N
ATLAS 2AS CENTAUR R/B 3.1 02:25:25 10° SW 02:33:21 72° NW 02:41:16 10° NNE
CENTAUR R/B 3.8 02:39:40 10° NW 02:47:17 48° WSW 02:47:17 48° WSW
ATLAS 3B R/B 3.5 02:47:08 10° NW 02:51:46 46° NNW 02:51:46 46° NNW
Cosmos 2227 Rocket 4.4 06:28:37 10° N 06:30:24 19° N 06:30:24 19° N
ADEOS II 4.2 06:38:58 10° NNE 06:41:15 23° NE 06:41:15 23° NE
USA 234 4.3 06:48:52 10° E 06:54:50 40° NNE 06:59:35 16° NW
ARIANE 5 R/B 4.4 06:59:43 10° NE 07:02:49 25° ENE 07:02:49 25° ENE
SL-16 R/B 4.4 07:12:44 19° NNW 07:12:44 19° NNW 07:14:23 10° NNW
CZ-2D R/B 4.0 07:04:00 10° N 07:06:00 23° N 07:06:00 23° N
ATLAS 5 CENTAUR R/B 4.2 07:12:31 16° N 07:12:31 16° N 07:13:45 10° NNE
Resurs 1-4 Rocket 4.0 07:17:16 10° N 07:19:11 21° NNW 07:19:11 21° NNW
Cosmos 2082 4.5 07:19:50 10° NNW 07:24:55 49° NE 07:24:55 49° NE
Cosmos 1697 Rocket 3.1 07:37:49 58° NE 07:37:49 58° NE 07:42:26 10° NNE
Cosmos 1980 Rocket 3.1 07:40:43 40° ESE 07:41:08 41° ESE 07:46:25 10° NE
Cosmos 2263 Rocket 4.4 07:46:13 10° N 07:50:45 24° NE 07:55:16 10° ESE
Cosmos 1782 4.3 07:57:05 35° NE 07:57:05 35° NE 07:59:46 10° NNE
Spot 4 Rocket 4.2 07:55:44 10° NNE 08:00:52 64° ESE 08:01:11 62° ESE
USA 267 3.4 07:56:52 10° NE 08:03:17 61° NNW 08:04:18 55° WNW
CZ-2C R/B 4.2 08:01:45 10° NNE 08:04:42 36° ENE 08:04:42 36° ENE
Cosmos 1515 Rocket 4.1 08:06:38 58° NE 08:06:38 58° NE 08:10:23 10° NNE
Lacrosse 5 2.0 08:09:35 64° N 08:09:35 64° N 08:14:14 10° NE
Cosmos 1238 Rocket 4.4 08:03:02 10° N 08:09:37 61° E 08:15:38 10° SSE
Cosmos 1821 Rocket 3.8 08:03:26 10° NNW 08:09:43 72° W 08:10:12 69° SW
Cosmos 1777 Rocket 3.9 08:06:35 10° NNW 08:11:45 87° NNW 08:11:45 87° NNW
Cosmos 921 Rocket 4.3 08:18:19 29° SE 08:19:33 35° E 08:23:23 10° NE
Cosmos 44 3.3 08:20:09 60° SE 08:20:18 60° ESE 08:24:49 10° NE
ADEOS II 3.4 08:18:55 10° N 08:22:10 26° NW 08:22:10 26° NW
CZ-4C R/B 3.9 08:23:39 47° E 08:24:00 50° ENE 08:27:30 10° N
Cosmos 1934 Rocket 3.8 08:18:16 10° N 08:24:22 87° E 08:30:27 10° S
Cosmos 2228 Rocket 3.7 08:23:48 37° SSE 08:25:12 55° E 08:29:31 10° NNE
Meteor 1-20 Rocket 4.4 08:20:20 10° NNW 08:24:47 49° WNW 08:24:47 49° WNW
Cosmos 1933 Rocket 3.5 08:21:16 10° N 08:25:24 79° N 08:25:24 79° N
Nadezhda 3 Rocket 4.2 08:32:55 45° W 08:33:21 46° WNW 08:39:16 10° N
ADEOS Rocket 4.3 08:28:46 10° SE 08:35:15 45° ENE 08:41:08 10° N
Cosmos 2278 3.6 08:34:00 53° WSW 08:35:16 69° WNW 08:40:59 10° NNE
Cosmos 972 Rocket 4.3 08:35:32 43° WNW 08:35:32 43° WNW 08:39:57 10° N
IDEFIX/ARIANE 42P 2.6 08:31:00 10° N 08:36:10 57° WNW 08:36:52 52° WSW
USA 234 3.1 08:30:58 10° SE 08:37:29 81° SW 08:44:04 10° NW
Meteor 1-4 Rocket 4.4 08:35:16 15° SSE 08:37:32 29° E 08:40:35 10° NNE
X-37B 1.6 08:38:14 45° NE 08:38:14 45° NE 08:40:46 10° ENE
MSX 3.7 08:33:16 10° NNE 08:39:03 80° WNW 08:41:47 33° SSW
Timation 1 Rocket 4.2 08:34:01 10° NNW 08:40:02 79° WSW 08:46:02 10° SSE
ARIANE 5 R/B 3.1 08:38:33 10° N 08:43:09 37° WNW 08:43:09 37° WNW
Cosmos 2369 4.2 08:42:33 39° W 08:43:24 41° WNW 08:48:49 10° NNE
Cosmos 1869 Rocket 4.2 08:40:24 10° N 08:44:40 55° E 08:48:54 10° SSE
CZ-3B R/B 3.5 08:44:41 21° NW 08:46:04 27° N 08:53:02 10° NE
Cosmos 389 Rocket 3.4 08:47:50 36° NNW 08:47:50 36° NNW 08:50:15 10° N
Cosmos 1605 Rocket 4.0 08:41:11 10° N 08:47:36 86° E 08:54:01 10° S
USA 305 3.6 08:47:19 37° NW 08:47:53 39° NNW 08:51:54 10° NE
Cosmos 1535 Rocket 4.5 08:42:10 10° NNW 08:48:30 66° W 08:54:48 10° S
USA 306 3.7 08:51:15 34° NW 08:51:59 37° NNW 08:55:58 10° NE
CZ-2D R/B 4.5 08:52:02 10° N 08:55:21 31° WNW 08:55:21 31° WNW
ERS-2 2.4 08:53:16 10° SSE 08:56:54 67° ENE 09:00:33 10° N
Iridium 2 4.5 08:59:28 34° NW 08:59:28 34° NW 09:02:16 10° NNW
SJ 16-02 1.6 08:55:11 10° NNW 08:59:35 69° ENE 09:03:57 10° SSE
PSLV R/B 3.4 08:57:54 10° NNE 09:02:08 90° E 09:05:14 18° SSW
H-2A R/B 2.1 08:59:03 10° S 09:03:19 59° WSW 09:07:43 10° NNW
Cosmos 1763 Rocket 4.1 09:00:02 10° S 09:05:13 57° ESE 09:10:26 10° NNE
ASTEX 1 4.4 09:09:13 10° NNW 09:13:24 27° WNW 09:14:18 26° W
Cosmos 1812 2.7 09:12:51 25° SSW 09:14:52 57° W 09:18:41 10° N
Cosmos 2360 Rocket 4.1 09:10:22 10° SSE 09:15:13 30° ESE 09:20:05 10° NE
CZ-2C R/B 2.4 09:11:49 10° N 09:16:55 73° WNW 09:22:05 10° SSW
BREEZE-M DEB (TANK) 3.4 09:17:25 29° WNW 09:18:47 52° NNW 09:25:29 10° ENE
USA 307 4.2 09:17:10 20° WNW 09:19:07 28° NNW 09:22:50 10° NE
BREEZE-M DEB (TANK) 3.1 09:13:56 20° WSW 09:19:31 70° SSE 09:22:40 10° ENE
Cosmos 1727 Rocket 4.0 09:13:13 10° S 09:19:34 84° W 09:25:57 10° N
Cosmos 1697 Rocket 4.1 09:19:35 17° WNW 09:21:22 20° NW 09:25:27 10° N
SL-8 R/B 3.7 09:17:58 16° WNW 09:21:44 84° NNE 09:26:31 10° ESE
Cosmos 1500 3.5 09:18:14 10° NNW 09:21:52 41° W 09:25:28 10° SSW
USA 308 4.3 09:20:08 19° WNW 09:22:15 28° NNW 09:25:57 10° NE
PAYLOAD A 3.9 09:18:03 10° N 09:22:39 54° WNW 09:26:52 12° SSW
ERBS 2.2 09:21:44 30° SW 09:23:14 79° NW 09:26:36 10° NE
SL-4 R/B 3.3 09:19:51 13° SSW 09:23:35 42° SE 09:28:06 10° ENE
Cosmos 1980 Rocket 3.1 09:22:31 22° W 09:25:13 32° NW 09:30:16 10° N
CZ-4B R/B 1.3 09:23:37 10° SSE 09:26:43 79° ENE 09:29:56 10° N
Cosmos 1666 2.6 09:23:58 10° N 09:27:49 85° W 09:31:36 10° S
Cosmos 990 Rocket 3.9 09:23:23 10° NNW 09:28:37 88° WSW 09:33:50 10° SSE
Landsat 5 4.4 09:25:27 10° SSW 09:29:27 31° W 09:33:28 10° NW
BREEZE M DEB (TANK) 3.5 09:17:00 10° WNW 09:29:40 67° SW 09:33:31 10° SE
Cosmos 468 Rocket 4.0 09:24:53 10° SSW 09:30:11 77° WNW 09:35:30 10° NNE
Cosmos 2322 Rocket 2.4 09:24:51 10° SSW 09:30:29 75° ESE 09:36:12 10° NNE
FENGYUN 3A 4.1 09:25:42 10° NNE 09:31:05 65° ESE 09:36:25 10° S
Meteor 1-10 Rocket 4.4 09:26:50 10° SSW 09:32:28 55° WNW 09:38:14 10° N
USA 276 4.1 09:31:03 12° NW 09:33:16 22° N 09:35:52 10° NE
Cosmos 2263 Rocket 2.2 09:29:31 10° NNW 09:35:04 58° WSW 09:40:36 10° S
Cosmos 540 Rocket 4.2 09:32:50 10° S 09:37:52 56° ESE 09:42:56 10° NNE
SL-16 R/B 2.2 09:32:40 10° SSW 09:38:20 79° WNW 09:44:03 10° NNE
CZ-2C R/B 4.5 09:37:10 10° NNW 09:39:27 15° WNW 09:40:05 15° WNW
Cosmos 1844 Rocket 4.3 09:36:35 10° N 09:41:48 37° ENE 09:47:00 10° SE
Cosmos 1459 Rocket 4.0 09:37:23 10° N 09:43:32 85° E 09:49:34 10° S
USA 267 4.5 09:40:02 10° NE 09:45:32 30° NNW 09:51:01 10° WNW
deb Chang Zheng 4 3.5 09:44:01 10° N 09:48:17 63° WNW 09:52:29 10° SSW
CZ-4B R/B 3.8 09:46:00 10° NNE 09:49:34 46° E 09:53:01 10° S
CZ-4B R/B 4.1 09:45:35 10° NNE 09:49:54 87° E 09:54:21 10° SSW
NOSS 3-3 (A) 4.4 09:45:01 13° WSW 09:49:59 45° NW 09:56:15 10° NNE
NOSS 3-3 (C) 4.4 09:45:10 13° WSW 09:50:06 45° NW 09:56:20 10° NNE
ATLAS CENTAUR R/B 4.3 09:43:27 10° NW 09:51:34 31° N 09:55:17 10° ENE
SAR-Lupe-4 3.6 09:49:24 10° S 09:52:55 56° WSW 09:56:29 10° NNW
Lacrosse 5 3.5 09:48:59 10° WNW 09:52:55 22° NNW 09:56:52 10° NNE
Cosmos 1707 Rocket 4.0 09:53:10 10° SSW 09:57:14 40° WNW 10:01:21 10° N
Cosmos 1898 Rocket 3.6 09:52:41 10° NNW 09:57:48 53° WSW 10:02:54 10° S
Cosmos 921 Rocket 4.4 09:55:09 11° WSW 09:57:57 20° WNW 10:01:05 10° NNW
Cosmos 1743 3.3 09:57:08 10° N 10:00:54 62° E 10:04:40 10° SSE
Okean 1 4.2 09:58:45 10° S 10:02:42 55° E 10:06:40 10° NNE
Cosmos 2208 Rocket 4.2 09:59:55 10° SSW 10:05:09 81° ESE 10:10:24 10° NNE
SAR-Lupe-1 4.5 10:01:52 10° S 10:05:14 40° W 10:08:39 10° NNW
PSLV R/B 4.0 10:01:35 10° SSE 10:05:37 85° ENE 10:09:43 10° NNW
ATLAS 2AS CENTAUR R/B 3.2 09:58:57 10° NNW 10:06:27 69° NE 10:13:17 10° SE
Cosmos 2219 Rocket 4.5 10:02:09 10° SSE 10:06:55 29° ESE 10:11:43 10° NE
Cosmos 1689 Rocket 2.0 10:07:51 10° S 10:10:45 59° W 10:13:43 10° NNW
ADEOS 4.0 10:06:28 10° N 10:11:23 43° WNW 10:16:17 10° SW
Meteor 1-4 Rocket 4.2 10:10:30 10° WSW 10:12:37 15° WNW 10:14:47 10° NNW
USA 281 4.5 10:06:48 10° NE 10:13:06 46° ESE 10:19:20 10° S
PKM 3.9 10:10:19 10° NW 10:13:50 72° SW 10:18:14 10° SE
Cosmos 372 Rocket 4.3 10:08:47 10° NNW 10:13:57 74° ENE 10:19:03 10° SSE
Cosmos 2173 Rocket 4.2 10:07:48 10° NNW 10:13:57 56° W 10:20:08 10° SSW
X-37B 0.6 10:11:11 10° WNW 10:14:23 88° N 10:17:35 10° ESE
SKYMED 2 3.6 10:10:12 10° SSE 10:14:32 83° WSW 10:18:54 10° NNW
Cosmos 2333 Rocket 4.0 10:09:43 10° S 10:14:57 37° ESE 10:20:12 10° NE
Cosmos 1536 3.6 10:11:46 10° NNW 10:15:26 32° W 10:19:04 10° SSW
Okean 1-7 4.4 10:11:36 10° SSE 10:15:39 45° E 10:19:43 10° NNE
